Columbia, MO

9:36 PM CDT on September 22, 2017 (GMT -0500)
Columbia Regional

Weather History for KCOU - April, 2014

Change the Weather History Date:

Tuesday, April 8, 2014

  Actual Average Record
Temperature  
Mean Temperature 52 °F 53 °F  
Max Temperature 59 °F 64 °F 86 °F (2001)
Min Temperature 44 °F 42 °F 23 °F (2007)
Degree Days  
Heating Degree Days 13 13  
Month to date heating degree days 123 111  
Since 1 July heating degree days 5282 4693  
Cooling Degree Days 0 1  
Month to date cooling degree days 0 1  
Year to date cooling degree days 0 4  
Growing Degree Days 2 (Base 50)    
Moisture  
Dew Point 38 °F    
Average Humidity 65    
Maximum Humidity 86    
Minimum Humidity 43    
Precipitation  
Precipitation 0.06 in 0.14 in 1.17 in (1922)
Month to date precipitation 6.41 1.03  
Year to date precipitation 9.90 8.11  
Snow  
Snow 0.00 in 0.00 in 5.80 in (1938)
Month to date snowfall 0.0 0.1  
Since 1 July snowfall 17.8 17.9  
Snow Depth 0.00 in    
Sea Level Pressure  
Sea Level Pressure 29.91 in    
Wind  
Wind Speed 11 mph (NW)    
Max Wind Speed 28 mph    
Max Gust Speed 35 mph    
Visibility 10 miles    
Events Rain , Thunderstorm    
T = Trace of Precipitation, MM = Missing Value Source: NWS Daily Summary

Daily Weather History Graph

Daily Weather History Graph

Search for Another Location

Airport or City:

Trip Planner

Search our weather history database for the weather conditions in past years. The results will help you decide how hot, cold, wet, or windy it might be!

Date:

Astronomy

Apr. 08, 2014 Rise Set
Actual Time 6:42 AM CDT 7:39 PM CDT
Civil Twilight 6:15 AM CDT 8:06 PM CDT
Nautical Twilight 5:43 AM CDT 8:38 PM CDT
Astronomical Twilight 5:10 AM CDT 9:12 PM CDT
Moon 1:36 PM CDT (4/8) 2:52 AM CDT (4/8)
Length of Visible Light 13h 50m
Length of Day
12h 56m
Waxing Gibbous, 63% of the Moon is Illuminated
Apr 8
Waxing Gibbous
Apr 15
Full
Apr 22
Last Quarter
Apr 29
New
May 6
First Quarter

Hourly Weather History & Observations

Time (CDT) Temp. Windchill Dew Point Humidity Pressure Visibility Wind Dir Wind Speed Gust Speed Precip Events Conditions
12:54 AM 52.0 °F - 44.1 °F 74% 29.80 in 6.0 mi NNW 16.1 mph - 0.00 in Rain Rain
1:54 AM 51.1 °F - 45.0 °F 80% 29.79 in 10.0 mi WNW 3.5 mph - 0.07 in   Overcast
2:54 AM 50.0 °F - 44.1 °F 80% 29.79 in 10.0 mi WNW 6.9 mph - N/A   Mostly Cloudy
3:54 AM 48.0 °F - 43.0 °F 83% 29.79 in 10.0 mi NNW 5.8 mph - N/A   Overcast
4:54 AM 48.0 °F - 42.1 °F 80% 29.80 in 10.0 mi NW 10.4 mph - N/A   Partly Cloudy
5:54 AM 46.9 °F - 42.1 °F 83% 29.81 in 10.0 mi WNW 6.9 mph - N/A   Mostly Cloudy
6:54 AM 46.0 °F 41.9 °F 41.0 °F 83% 29.84 in 10.0 mi WNW 8.1 mph - N/A   Scattered Clouds
7:54 AM 46.9 °F - 39.9 °F 77% 29.86 in 10.0 mi NW 8.1 mph - N/A   Partly Cloudy
8:54 AM 50.0 °F - 39.0 °F 66% 29.87 in 10.0 mi NNW 13.8 mph - N/A   Clear
9:54 AM 52.0 °F - 39.9 °F 63% 29.89 in 10.0 mi NW 10.4 mph - N/A   Clear
10:54 AM 55.0 °F - 39.9 °F 57% 29.91 in - North - - N/A   Clear
10:59 AM 55.0 °F - 39.9 °F 57% 29.92 in 10.0 mi NW 11.5 mph 21.9 mph N/A   Clear
11:54 AM 57.0 °F - 39.0 °F 51% 29.92 in 10.0 mi NW 19.6 mph 24.2 mph N/A   Mostly Cloudy
12:54 PM 57.9 °F - 39.0 °F 49% 29.92 in 10.0 mi NW 20.7 mph 25.3 mph N/A   Scattered Clouds
1:54 PM 54.0 °F - 42.1 °F 64% 29.92 in 10.0 mi NNW 12.7 mph - 0.01 in   Mostly Cloudy
2:54 PM 52.0 °F - 39.0 °F 61% 29.93 in 10.0 mi NNW 23.0 mph 28.8 mph 0.00 in   Overcast
3:09 PM 51.1 °F - 39.0 °F 63% 29.93 in 10.0 mi NNW 10.4 mph - 0.00 in Rain , Thunderstorm Light Rain
3:27 PM 53.1 °F - 39.0 °F 59% 29.93 in 10.0 mi NNW 13.8 mph 20.7 mph 0.00 in Rain Light Rain
3:54 PM 53.1 °F - 36.0 °F 52% 29.93 in 10.0 mi NW 15.0 mph - 0.00 in   Partly Cloudy
4:54 PM 59.0 °F - 37.0 °F 44% 29.93 in 10.0 mi NNW 13.8 mph - N/A   Mostly Cloudy
5:25 PM 55.0 °F - 37.0 °F 51% 29.95 in 10.0 mi North 10.4 mph - N/A   Overcast
5:54 PM 57.0 °F - 37.0 °F 47% 29.96 in 10.0 mi North 10.4 mph - 0.00 in   Overcast
6:54 PM 55.0 °F - 33.1 °F 43% 29.98 in 10.0 mi NNW 12.7 mph - N/A   Clear
7:54 PM 53.1 °F - 32.0 °F 45% 30.00 in 10.0 mi NW 9.2 mph - N/A   Clear
8:54 PM 50.0 °F - 30.9 °F 48% 30.03 in 10.0 mi WNW 6.9 mph - N/A   Clear
9:54 PM 48.9 °F - 32.0 °F 52% 30.05 in 10.0 mi WNW 8.1 mph - N/A   Clear
10:54 PM 46.9 °F - 30.9 °F 54% 30.05 in 10.0 mi NW 6.9 mph - N/A   Clear
11:54 PM 46.0 °F 42.5 °F 30.9 °F 56% 30.06 in 10.0 mi NW 6.9 mph - N/A   Clear